DW4236 Weather Reports


time (UTC)temp
F
wind
direction
speed
knots
gust
knots
rain 1hr
in
rain 24hr
in
rain mn
in
humidity
%
barometer
mb
20260902220604 67 138 0.9 7.8 0.00 0.48 0.48 94 1021.1
20260902215605 68 152 1.7 2.6 0.00 0.48 0.48 94 1021.2
20260902215105 68 200 0.0 0.0 0.00 0.48 0.48 94 1021.2
20260902214603 68 200 0.0 0.9 0.00 0.48 0.48 94 1021.2
20260902214105 68 200 0.0 0.9 0.00 0.48 0.48 94 1021.1
20260902213603 68 200 0.0 0.9 0.00 0.48 0.48 94 1020.9
20260902213104 68 200 0.0 0.0 0.00 0.48 0.48 94 1020.8
20260902212604 68 201 0.0 0.0 0.00 0.48 0.48 94 1020.6
20260902212105 68 201 0.0 1.7 0.00 0.48 0.48 94 1020.5
20260902211603 68 201 0.0 1.7 0.00 0.48 0.48 94 1020.4
20260902211104 68 203 0.0 2.6 0.00 0.48 0.48 94 1020.4
20260902210604 68 192 0.0 1.7 0.00 0.48 0.48 94 1020.5
20260902210104 68 162 0.0 1.7 0.00 0.48 0.48 94 1020.6
20260902205604 68 162 0.0 0.9 0.00 0.48 0.48 94 1020.5
20260902204103 68 162 0.0 1.7 0.00 0.48 0.48 94 1020.5
20260902203604 68 162 0.9 2.6 0.00 0.48 0.48 94 1020.7
20260902203104 68 162 1.7 2.6 0.00 0.48 0.48 94 1020.6
20260902202604 68 155 1.7 2.6 0.00 0.48 0.48 94 1020.6
20260902201604 67 148 0.9 2.6 0.00 0.48 0.48 95 1020.7
20260902201104 68 148 1.7 2.6 0.00 0.48 0.48 95 1020.7
20260902200604 68 155 0.0 0.0 0.00 0.48 0.48 95 1020.6
20260902200103 67 155 0.0 0.0 0.00 0.48 0.48 95 1020.6
20260902195603 67 155 0.0 0.0 0.01 0.48 0.48 95 1020.7
20260902195104 67 155 0.0 0.9 0.01 0.48 0.48 95 1020.7
20260902194603 67 155 0.0 1.7 0.01 0.48 0.48 95 1020.9
20260902194105 67 155 0.0 1.7 0.01 0.48 0.48 95 1020.9
20260902193604 67 155 0.0 0.0 0.02 0.48 0.48 95 1020.9
20260902193104 67 155 0.0 0.0 0.03 0.48 0.48 95 1020.9
20260902192603 67 201 0.0 0.9 0.03 0.48 0.48 95 1021.0
20260902192105 67 201 0.0 0.0 0.05 0.48 0.48 95 1021.0
20260902191604 66 201 0.9 1.7 0.07 0.48 0.48 95 1021.1
20260902191104 66 201 0.0 0.9 0.10 0.48 0.48 95 1021.3
20260902185603 66 201 0.0 0.0 0.17 0.47 0.47 95 1021.3
20260902184603 66 201 0.0 1.7 0.23 0.47 0.47 95 1021.4
20260902184104 66 201 0.0 0.9 0.34 0.47 0.47 95 1021.5
20260902183603 65 129 0.9 2.6 0.43 0.46 0.46 94 1021.6
20260902183104 65 128 0.0 0.9 0.45 0.45 0.45 94 1022.0
20260902182605 65 128 0.9 2.6 0.45 0.45 0.45 94 1021.9
20260902182104 65 161 0.9 2.6 0.43 0.43 0.43 94 1021.9
20260902181104 65 177 0.9 2.6 0.38 0.38 0.38 93 1022.1
20260902180604 66 198 1.7 2.6 0.37 0.37 0.37 93 1022.5
20260902180104 66 319 0.0 0.0 0.34 0.34 0.34 92 1022.9
20260902175604 66 319 0.0 0.9 0.30 0.30 0.30 92 1022.9
20260902174604 66 97 1.7 2.6 0.24 0.24 0.24 91 1022.8
20260902174104 67 145 0.0 1.7 0.13 0.13 0.13 91 1022.5
20260902173603 67 145 0.0 0.0 0.03 0.03 0.03 90 1022.5
20260902173103 67 145 0.0 0.0 0.00 0.00 0.00 90 1022.4
20260902172104 67 144 0.0 1.7 0.00 0.00 0.00 90 1021.9
20260902171605 67 144 0.9 2.6 0.00 0.00 0.00 90 1021.9
20260902170103 66 185 0.0 1.7 0.00 0.00 0.00 90 1021.8
20260902165104 66 185 0.0 0.0 0.00 0.00 0.00 90 1022.0
20260902164604 66 185 0.0 0.0 0.00 0.00 0.00 90 1022.0
20260902164105 66 185 0.9 2.6 0.00 0.00 0.00 90 1022.0
20260902163605 66 188 0.0 0.0 0.00 0.00 0.00 90 1022.1
20260902163104 66 188 0.0 0.0 0.00 0.00 0.00 90 1022.1
20260902162605 66 188 0.0 1.7 0.00 0.00 0.00 90 1022.2
20260902162106 66 172 0.0 0.9 0.00 0.00 0.00 90 1022.1
20260902161606 66 174 0.0 2.6 0.00 0.00 0.00 90 1022.1
20260902161105 66 183 1.7 5.2 0.00 0.00 0.00 90 1022.2
20260902160605 66 178 0.9 2.6 0.00 0.00 0.00 90 1022.2
20260902160105 66 178 0.0 2.6 0.00 0.00 0.00 90 1022.2
20260902155605 66 181 1.7 5.2 0.00 0.00 0.00 90 1022.1
20260902155106 66 166 2.6 5.2 0.00 0.00 0.00 90 1022.0
20260902154605 66 155 0.9 2.6 0.00 0.00 0.00 90 1022.0
20260902154105 66 169 1.7 5.2 0.00 0.00 0.00 90 1022.0
20260902153606 66 160 0.9 2.6 0.00 0.00 0.00 90 1021.9
20260902152105 66 170 0.0 2.6 0.00 0.00 0.00 90 1022.0
20260902151105 66 172 1.7 2.6 0.00 0.01 0.00 90 1022.2
20260902150605 66 149 1.7 2.6 0.00 0.01 0.00 89 1022.3
20260902150105 66 163 0.9 2.6 0.00 0.01 0.00 90 1022.3
20260902144605 65 161 0.9 2.6 0.00 0.02 0.00 90 1022.7
20260902144106 65 161 0.0 1.7 0.00 0.02 0.00 90 1022.8
20260902143605 65 166 1.7 2.6 0.00 0.03 0.00 90 1022.6
20260902142605 65 174 0.0 1.7 0.00 0.04 0.00 90 1022.5
20260902142106 65 174 0.9 2.6 0.00 0.05 0.00 90 1022.6
20260902141605 65 174 0.0 2.6 0.00 0.05 0.00 90 1022.4
20260902141105 65 174 2.6 5.2 0.00 0.05 0.00 90 1022.3
20260902140605 65 164 2.6 5.2 0.00 0.06 0.00 91 1022.2
20260902140104 65 170 0.9 4.3 0.00 0.06 0.00 91 1022.3
20260902135604 65 156 0.9 2.6 0.00 0.06 0.00 91 1022.4
20260902135104 64 134 1.7 5.2 0.00 0.06 0.00 91 1022.5
20260902134605 64 146 0.0 2.6 0.00 0.06 0.00 91 1022.5
20260902134105 64 155 0.0 4.3 0.00 0.07 0.00 91 1022.6
20260902133605 64 171 0.9 4.3 0.00 0.07 0.00 91 1022.5
20260902133106 64 176 1.7 2.6 0.00 0.08 0.00 91 1022.4
20260902132105 64 176 0.9 2.6 0.00 0.09 0.00 92 1022.2
20260902131605 64 172 0.9 2.6 0.00 0.10 0.00 92 1022.1
20260902130605 64 157 1.7 7.0 0.00 0.11 0.00 92 1022.0
20260902130105 64 170 3.5 6.1 0.00 0.11 0.00 93 1021.8
20260902125605 64 141 3.5 7.0 0.00 0.11 0.00 93 1021.9
20260902124105 63 170 2.6 7.0 0.00 0.11 0.00 94 1022.0
20260902123605 63 163 2.6 7.8 0.00 0.11 0.00 94 1021.9
20260902123106 64 134 1.7 5.2 0.00 0.11 0.00 95 1021.9
20260902122606 64 142 1.7 2.6 0.00 0.11 0.00 95 1021.9
20260902122105 64 158 2.6 2.6 0.00 0.11 0.00 95 1021.6
20260902121604 64 218 0.9 4.3 0.00 0.11 0.00 95 1021.6
20260902121104 64 143 0.9 2.6 0.00 0.11 0.00 95 1021.5
20260902120605 64 128 0.0 2.6 0.00 0.11 0.00 95 1021.5
20260902115105 64 143 0.9 2.6 0.00 0.11 0.00 95 1021.5
20260902114605 64 144 0.9 5.2 0.00 0.11 0.00 95 1021.4
20260902114105 64 133 0.9 2.6 0.00 0.11 0.00 95 1021.5
20260902113604 64 130 0.0 2.6 0.00 0.11 0.00 95 1021.7
20260902113105 64 130 0.0 2.6 0.00 0.11 0.00 95 1021.7
20260902112606 64 130 0.0 1.7 0.00 0.12 0.00 95 1021.6
20260902111606 64 130 0.9 2.6 0.00 0.12 0.00 95 1021.7
20260902111105 64 131 0.9 2.6 0.00 0.12 0.00 95 1021.6
20260902110606 64 132 0.0 0.9 0.00 0.12 0.00 95 1021.7
20260902110105 64 132 0.9 2.6 0.00 0.12 0.00 95 1021.7
20260902105104 64 132 0.0 0.0 0.00 0.12 0.00 95 1021.5
20260902104605 64 132 0.0 0.9 0.00 0.13 0.00 95 1021.5
20260902104105 64 132 0.9 1.7 0.00 0.13 0.00 95 1021.6
20260902103605 64 132 0.0 0.9 0.00 0.13 0.00 95 1021.5
20260902102604 64 143 0.0 0.0 0.00 0.14 0.00 95 1021.4
20260902102105 64 143 0.0 2.6 0.00 0.14 0.00 95 1021.4
20260902101104 64 142 1.7 2.6 0.00 0.14 0.00 95 1021.2
20260902100605 64 74 0.0 0.0 0.00 0.14 0.00 95 1021.1
20260902100104 64 74 0.0 0.0 0.00 0.14 0.00 95 1021.1
20260902095605 64 74 0.0 1.7 0.00 0.14 0.00 95 1021.1
20260902095104 64 74 0.0 0.9 0.00 0.14 0.00 95 1021.0
20260902094606 64 74 0.0 1.7 0.00 0.14 0.00 95 1021.0
20260902094105 64 74 0.9 1.7 0.00 0.14 0.00 95 1021.0
20260902093605 64 74 0.0 1.7 0.00 0.14 0.00 95 1020.9
20260902093104 64 74 0.9 2.6 0.00 0.14 0.00 95 1020.8
20260902092605 64 74 0.9 2.6 0.00 0.14 0.00 94 1020.7
20260902092104 64 74 0.0 1.7 0.00 0.14 0.00 94 1020.8
20260902091605 64 74 0.0 1.7 0.00 0.14 0.00 94 1020.7
20260902090607 64 71 0.9 2.6 0.00 0.14 0.00 94 1020.6
20260902090106 64 65 0.9 2.6 0.00 0.14 0.00 94 1020.7
20260902085605 64 65 0.0 0.0 0.00 0.14 0.00 94 1020.7
20260902085104 65 65 0.9 1.7 0.00 0.14 0.00 94 1020.7
20260902084605 64 64 0.0 0.0 0.00 0.14 0.00 94 1020.7
20260902084105 65 64 0.0 1.7 0.00 0.14 0.00 94 1020.6
20260902083604 65 64 0.0 1.7 0.00 0.14 0.00 94 1020.6
20260902083105 65 65 0.9 2.6 0.00 0.14 0.00 94 1020.5
20260902082106 65 38 0.9 2.6 0.00 0.14 0.00 94 1020.4
20260902081106 65 81 2.6 2.6 0.00 0.14 0.00 93 1020.4
20260902080605 65 84 1.7 4.3 0.00 0.14 0.00 93 1020.3
20260902080106 65 78 0.9 2.6 0.00 0.14 0.00 93 1020.4
20260902075605 65 80 0.0 2.6 0.00 0.14 0.00 93 1020.4
20260902075104 65 80 0.9 2.6 0.00 0.14 0.00 93 1020.4
20260902074605 65 76 0.9 2.6 0.00 0.14 0.00 93 1020.4
20260902074105 65 77 0.9 2.6 0.00 0.14 0.00 93 1020.3
20260902073605 65 133 1.7 2.6 0.00 0.14 0.00 93 1020.3
20260902073104 65 96 1.7 2.6 0.00 0.14 0.00 93 1020.3
20260902072605 65 127 0.9 2.6 0.00 0.14 0.00 93 1020.2
20260902072104 65 147 0.0 0.9 0.00 0.14 0.00 93 1020.2
20260902071105 65 147 0.0 0.9 0.00 0.14 0.00 93 1020.3
20260902070604 65 147 0.0 0.0 0.00 0.14 0.00 93 1020.3
20260902070105 65 147 0.0 1.7 0.00 0.14 0.00 93 1020.4
20260902065604 65 147 0.9 2.6 0.00 0.14 0.00 93 1020.3
20260902064605 65 149 0.0 2.6 0.00 0.14 0.00 93 1020.3
20260902063605 65 149 0.9 2.6 0.00 0.14 0.00 93 1020.3
20260902063104 65 117 2.6 4.3 0.00 0.15 0.00 93 1020.3
20260902062105 65 135 1.7 2.6 0.00 0.15 0.00 93 1020.4
20260902061605 65 126 0.0 2.6 0.00 0.15 0.00 93 1020.4
20260902061105 65 110 0.9 2.6 0.00 0.15 0.00 93 1020.4
20260902060605 65 151 0.9 2.6 0.00 0.15 0.00 93 1020.4
20260902060104 65 151 1.7 2.6 0.00 0.15 0.00 93 1020.4
20260902055604 65 158 1.7 7.8 0.00 0.15 0.00 93 1020.5
20260902055104 65 135 4.3 7.8 0.00 0.16 0.00 93 1020.5
20260902054605 65 151 2.6 7.0 0.00 0.16 0.00 93 1020.6
20260902054106 65 170 0.9 7.0 0.00 0.17 0.00 93 1020.6
20260902053105 65 122 1.7 4.3 0.00 0.18 0.00 93 1020.5
20260902052604 65 137 1.7 5.2 0.00 0.20 0.00 93 1020.4
20260902052105 65 157 0.9 2.6 0.00 0.20 0.00 93 1020.4
20260902051105 65 157 0.9 1.7 0.00 0.22 0.00 93 1020.2
20260902050606 65 159 0.0 0.0 0.00 0.24 0.00 93 1020.3
20260902050104 65 159 0.0 2.6 0.00 0.27 0.00 93 1020.1
20260902045604 65 157 0.9 2.6 0.00 0.30 0.00 93 1020.1
20260902045105 65 176 0.0 2.6 0.00 0.32 0.00 93 1020.2
20260902044605 65 179 1.7 5.2 0.00 0.36 0.00 93 1020.2
20260902044104 65 174 1.7 2.6 0.00 0.40 0.00 93 1020.4
20260902043606 65 172 4.3 7.0 0.00 0.46 0.00 93 1020.4
20260902043105 65 175 0.9 4.3 0.00 0.47 0.00 93 1020.3
20260902042604 65 122 1.7 2.6 0.00 0.48 0.00 93 1020.3
20260902042105 65 170 0.9 2.6 0.00 0.49 0.00 93 1020.3
20260902041605 65 175 2.6 7.0 0.00 0.50 0.00 92 1020.1
20260902041105 66 130 0.9 2.6 0.00 0.52 0.00 92 1020.1
20260902040105 66 168 1.7 7.0 0.00 0.58 0.00 92 1019.8
20260902035604 66 179 2.6 4.3 0.00 0.59 0.59 92 1019.7
20260902035104 66 163 0.9 5.2 0.00 0.59 0.59 92 1019.6
20260902034106 66 127 1.7 2.6 0.00 0.60 0.59 92 1019.4
20260902033605 66 155 2.6 6.1 0.00 0.61 0.59 92 1019.2
20260902033106 66 174 4.3 7.0 0.00 0.62 0.59 92 1019.2
20260902032606 66 170 2.6 6.1 0.00 0.63 0.59 92 1019.1
20260902032105 66 196 2.6 6.1 0.00 0.63 0.59 91 1019.1
20260902031604 66 163 1.7 6.1 0.00 0.63 0.59 92 1019.1
20260902031105 66 177 2.6 8.7 0.00 0.63 0.59 91 1019.0
20260902030605 67 169 2.6 6.1 0.00 0.63 0.59 91 1018.9
20260902030104 67 169 3.5 7.0 0.00 0.63 0.59 91 1018.9
20260902025105 67 160 1.7 6.1 0.00 0.64 0.59 91 1018.6
20260902024605 67 149 1.7 7.0 0.00 0.64 0.59 91 1018.5
20260902024104 67 137 2.6 5.2 0.00 0.64 0.59 91 1018.5
20260902023604 67 157 1.7 5.2 0.00 0.64 0.59 91 1018.6
20260902023105 67 150 4.3 7.8 0.00 0.64 0.59 91 1018.6
20260902021605 68 185 2.6 7.0 0.00 0.64 0.59 91 1018.4
20260902021104 68 175 2.6 7.8 0.00 0.64 0.59 91 1018.5
20260902020104 68 151 1.7 5.2 0.00 0.64 0.59 91 1018.5
20260902015104 68 162 1.7 6.1 0.00 0.64 0.59 91 1018.4
20260902014605 68 157 4.3 7.0 0.00 0.64 0.59 91 1018.4
20260902014105 68 152 1.7 4.3 0.00 0.64 0.59 91 1018.4
20260902013106 69 152 0.9 2.6 0.00 0.64 0.59 91 1018.3
20260902012604 69 163 4.3 6.1 0.00 0.64 0.59 90 1018.2
20260902012104 69 158 3.5 7.0 0.00 0.64 0.59 90 1018.1
20260902011605 69 166 2.6 7.0 0.00 0.64 0.59 90 1017.9
20260902010604 69 178 1.7 7.0 0.00 0.64 0.59 90 1017.9
20260902010105 69 137 4.3 8.7 0.00 0.64 0.59 90 1017.7
20260902005605 70 176 2.6 7.8 0.00 0.64 0.59 90 1017.6
20260902005104 70 175 1.7 7.8 0.00 0.64 0.59 90 1017.4
20260902004605 70 169 4.3 10.4 0.00 0.64 0.59 89 1017.4
20260902004104 70 176 3.5 8.7 0.00 0.64 0.59 89 1017.2
20260902003105 71 196 1.7 7.0 0.00 0.64 0.59 90 1017.2
20260902002606 71 167 2.6 7.0 0.00 0.64 0.59 90 1016.9
20260902001605 72 203 1.7 6.1 0.00 0.64 0.59 91 1016.7
20260902001104 72 177 1.7 6.1 0.00 0.64 0.59 91 1016.7
20260902000604 73 69 4.3 7.8 0.00 0.64 0.59 91 1016.5
20260902000106 73 88 3.5 7.8 0.00 0.64 0.59 91 1016.4
20260901235605 73 54 2.6 7.0 0.00 0.64 0.59 91 1016.3
20260901235105 74 17 2.6 8.7 0.00 0.64 0.59 91 1016.3
20260901234605 74 49 5.2 8.7 0.00 0.64 0.59 91 1016.2
20260901234104 75 53 1.7 7.0 0.00 0.64 0.59 92 1016.2
20260901233605 75 30 2.6 7.8 0.00 0.64 0.59 92 1016.2
20260901233104 75 50 4.3 10.4 0.00 0.64 0.59 92 1016.3
20260901232605 76 56 2.6 6.1 0.00 0.64 0.59 92 1016.2
20260901232105 76 14 2.6 5.2 0.00 0.64 0.59 92 1016.3
20260901231605 76 55 1.7 2.6 0.00 0.64 0.59 92 1016.2
20260901231105 76 34 0.9 4.3 0.00 0.64 0.59 91 1016.2
20260901230604 76 29 0.9 2.6 0.00 0.64 0.59 91 1016.2
20260901230105 76 21 1.7 5.2 0.00 0.64 0.59 91 1016.2
20260901225605 77 80 1.7 7.0 0.00 0.64 0.59 91 1016.0
20260901225105 77 87 0.0 2.6 0.00 0.64 0.59 90 1016.1
20260901224104 77 56 4.3 7.8 0.00 0.64 0.59 90 1015.6
20260901223604 78 59 4.3 7.8 0.00 0.64 0.59 89 1015.5
20260901223104 78 82 2.6 7.8 0.00 0.64 0.59 89 1015.4
20260901222604 78 32 1.7 4.3 0.00 0.64 0.59 88 1015.4
20260901221105 79 95 2.6 5.2 0.00 0.64 0.59 87 1015.2